Flag for U.S.A. Weather past 2 weeks in Kansas City, Missouri, U.S.A.

Now
49 °F

Mostly cloudy.


Feels Like: 45 °F
Forecast: 34 / 48 °F
Wind: 9 mph from North

Location: Kansas City Downtown Airport

Current Time: Mar 26, 2015 at 9:22:59 PM

Latest Report: Mar 26, 2015 at 8:54 PM


Visibility: 10 mi

Pressure: 30.10 "Hg

Humidity: 41%

Dew point: 26 °F

Location of Kansas CityLocation

Historic Weather in Kansas City — Graph

°F

Kansas City temperature yesterday

Maximum temperature yesterday: 56 °F (at 1:54 PM)
Minimum temperature yesterday: 43 °F (at 2:54 AM)
Average temperature yesterday: 47 °F

Past Weeks' High & Low Weather Summary

 TemperatureHumidityPressure
High84 °F (Mar 16, 4:54 PM)100% (Mar 19, 12:54 AM)30.37 "Hg (Mar 19, 12:54 AM)
Low35 °F (Mar 26, 6:54 AM)19% (Mar 13, 3:54 PM)29.78 "Hg (Mar 24, 5:54 PM)
Average53 °F57%30.11 "Hg
* Reported Mar 11 7:54 PM — Mar 26 7:54 PM, Kansas City, Weather by CustomWeather, © 2015

Note: Actual official high and low records may vary slightly from our data, if they occured in-between our weather recording intervals... More about our weather records

Advertising

Kansas City weather history for previous 24 hours

 ConditionsComfort  
Time TempWeatherWind HumidityBarometerVisibility
7:54 PM
Thu, Mar 26
49 °FMostly cloudy.6 mph43%30.08 "Hg10 mi
6:54 PM50 °FPartly sunny.3 mph39%30.07 "Hg10 mi
5:54 PM51 °FSunny.5 mph36%30.08 "Hg10 mi
4:54 PM51 °FSunny.No wind36%30.10 "Hg10 mi
3:54 PM52 °FSunny.N/A38%30.11 "Hg10 mi
2:54 PM51 °FSunny.8 mph38%30.14 "Hg10 mi
1:54 PM51 °FSunny.10 mph39%30.16 "Hg10 mi
12:54 PM48 °FSunny.8 mph44%30.17 "Hg10 mi
11:54 AM46 °FSunny.14 mph46%30.20 "Hg10 mi
10:54 AM45 °FSunny.14 mph49%30.22 "Hg10 mi
9:54 AM42 °FSunny.12 mph55%30.23 "Hg10 mi
8:54 AM38 °FSunny.8 mph70%30.23 "Hg10 mi
7:54 AM35 °FClear.5 mph78%30.23 "Hg10 mi
6:54 AM35 °FClear.7 mph78%30.21 "Hg10 mi
5:54 AM37 °FClear.10 mph76%30.18 "Hg10 mi
4:54 AM38 °FClear.6 mph76%30.16 "Hg10 mi
3:54 AM39 °FClear.7 mph76%30.15 "Hg10 mi
2:54 AM40 °FClear.8 mph77%30.13 "Hg10 mi
1:54 AM41 °FClear.9 mph76%30.13 "Hg10 mi
12:54 AM43 °FClear.8 mph76%30.13 "Hg10 mi
11:54 PM
Wed, Mar 25
43 °FLight rain. Mostly cloudy.10 mph82%30.13 "Hg10 mi
10:54 PM43 °FLight rain. Overcast.13 mph86%30.13 "Hg10 mi
9:54 PM44 °FLight rain. Mostly cloudy.10 mph85%30.12 "Hg10 mi
Weather by CustomWeather, © 2015

See weather overviewHow to use our weather pages